Cloud_Cover
0 0 0 0 0 0 0 0 0 0 0 0 0 0 0 0 0 0 0 0 13 2 2 7 68 97 100 100 100 100 100 100 100 100 100 100 100 100 100 100 5 11 18
0 0 0 0 0 0 0 0 0 0 0 0 0 0 0 0 0 0 0 0 0 0 0 0 0 100 100 100 100 100 100 100 100 100 100 100 100 100 100 100 48 19 48
0 0 0 0 0 0 0 0 0 0 0 0 0 0 0 0 0 0 0 10 4 0 0 2 2 100 100 100 100 100 100 100 100 100 100 100 100 100 100 98 91 30 14
0 0 0 0 0 0 0 0 0 0 0 0 0 0 0 0 0 0 0 0 0 0 0 1 11 66 100 100 100 100 100 100 100 100 100 100 100 100 100 100 79 5 21
0 0 0 0 0 0 0 0 0 0 0 0 0 0 0 0 0 0 0 0 0 0 0 0 2 20 100 100 100 100 100 100 100 100 100 100 100 100 100 100 42 74 31
0 0 0 0 0 0 0 0 0 0 0 0 0 0 0 0 0 0 0 0 0 0 0 0 0 0 100 94 100 100 100 100 100 100 100 100 100 100 100 90 7 31 64
0 0 0 0 0 0 0 0 0 0 0 0 0 0 0 0 0 0 0 0 0 0 0 0 0 8 35 24 99 100 100 100 100 100 100 100 100 100 100 100 74 15 46
0 0 0 0 0 0 0 0 0 0 0 0 0 0 0 0 0 0 0 0 0 0 0 0 0 94 69 88 100 100 100 100 100 100 100 100 100 100 100 100 33 5 10
0 0 0 0 0 0 0 0 0 0 2 0 0 0 0 0 0 0 48 0 0 0 0 15 35 58 92 48 100 100 100 100 100 100 100 100 100 100 100 98 22 6 50
0 1 3 0 1 5 32 49 100 96 81 22 4 0 0 0 0 0 42 0 0 0 5 65 57 75 99 84 100 100 100 100 100 100 100 100 100 100 100 62 6 19 11
50 50 63 78 98 100 39 99 100 100 100 43 27 7 0 0 0 0 0 1 0 49 78 100 100 100 100 100 100 100 100 100 100 100 100 100 100 100 69 44 18 80 68
89 96 78 96 95 100 100 93 55 62 72 15 6 2 0 0 0 0 0 88 11 79 100 100 100 96 95 100 100 100 100 100 100 100 100 100 100 100 100 68 68 95 79
100 98 46 100 100 87 100 100 97 100 83 14 59 24 2 0 0 0 16 100 100 99 100 100 100 79 99 100 100 100 100 100 100 100 100 100 100 100 100 49 58 100 100
100 100 100 100 99 45 100 100 100 74 100 98 88 60 23 1 9 59 47 98 100 100 100 100 100 100 100 100 100 100 100 100 100 100 100 100 100 100 100 28 81 80 99
100 100 100 100 100 100 100 100 100 100 100 97 36 54 37 1 53 13 36 37 100 100 100 100 100 100 100 100 100 100 100 100 100 100 100 100 100 100 100 100 88 80 78
100 100 100 100 100 100 100 100 100 100 85 99 99 100 53 59 96 85 100 100 100 100 100 100 100 100 100 100 100 100 100 100 100 100 100 100 100 100 100 100 81 100 75
100 100 100 100 100 100 100 100 100 100 100 100 59 2 23 6 94 100 100 100 100 100 100 100 100 100 100 100 100 100 100 100 100 100 100 100 100 100 100 99 96 99 100
100 100 100 100 100 100 100 100 100 100 100 100 97 53 43 85 100 100 100 100 100 100 100 100 100 100 100 100 100 100 100 100 100 100 100 100 100 100 91 81 95 97 74
100 100 100 100 100 100 100 100 100 100 100 100 100 100 99 100 100 100 100 100 100 100 100 100 100 100 100 100 100 100 100 100 100 100 100 100 100 97 80 69 95 90 100
100 98 100 100 100 100 100 100 100 100 100 100 100 100 100 100 100 100 100 100 100 100 100 100 100 100 100 100 100 100 100 100 100 100 100 100 95 78 67 100 90 92 100
100 100 100 100 100 100 100 100 100 100 100 90 100 100 100 100 100 100 100 100 100 100 100 100 100 100 100 100 100 100 100 100 100 100 100 100 100 97 83 100 98 100 100
100 100 100 100 100 100 100 100 99 100 100 100 100 100 100 100 100 100 100 100 100 100 100 100 100 100 100 100 100 100 100 100 100 93 100 100 79 69 94 100 99 100 100
100 100 100 100 100 100 100 89 100 100 100 100 100 100 100 100 100 100 100 100 100 100 100 100 100 100 100 100 100 100 100 100 100 100 100 100 100 100 100 100 100 100 100
100 100 100 100 100 100 98 100 100 100 100 100 100 100 100 100 100 100 100 100 100 100 100 100 100 100 100 100 100 100 100 100 100 100 100 100 100 100 100 100 100 100 100
100 100 100 100 100 100 100 100 100 100 100 100 100 100 100 100 100 100 100 100 100 100 100 100 100 100 100 100 100 100 100 100 100 100 100 100 100 100 90 100 100 100 100
100 100 100 100 100 100 100 100 100 100 100 100 100 100 100 100 100 100 100 100 100 100 100 100 100 100 100 100 100 100 100 100 100 100 100 100 100 100 100 100 100 100 100